TimePDT,TemperatureF,Dew PointF,Humidity,Sea Level PressureIn,VisibilityMPH,Wind Direction,Wind SpeedMPH,Gust SpeedMPH,PrecipitationIn,Events,Conditions,WindDirDegrees,DateUTC
12:15 AM,50.0,35.6,58,29.86,10.0,SW,15.0,-,N/A,,Clear,220,2012-11-01 07:15:00
12:35 AM,50.0,35.6,58,29.87,10.0,SSW,19.6,25.3,N/A,,Clear,210,2012-11-01 07:35:00
12:55 AM,50.0,35.6,58,29.87,10.0,SSW,18.4,23.0,N/A,,Clear,210,2012-11-01 07:55:00
1:15 AM,50.0,35.6,58,29.87,10.0,SSW,18.4,26.5,N/A,,Clear,210,2012-11-01 08:15:00
1:35 AM,50.0,35.6,58,29.88,10.0,SSW,16.1,21.9,N/A,,Clear,200,2012-11-01 08:35:00
1:55 AM,48.2,35.6,62,29.88,10.0,South,17.3,24.2,N/A,,Clear,190,2012-11-01 08:55:00
2:15 AM,48.2,35.6,62,29.87,10.0,South,20.7,-,N/A,,Clear,190,2012-11-01 09:15:00
2:35 AM,48.2,35.6,62,29.88,10.0,South,17.3,25.3,N/A,,Clear,190,2012-11-01 09:35:00
3:15 AM,48.2,33.8,58,29.86,10.0,South,21.9,31.1,N/A,,Mostly Cloudy,190,2012-11-01 10:15:00
3:35 AM,48.2,33.8,58,29.86,10.0,South,25.3,34.5,N/A,,Scattered Clouds,180,2012-11-01 10:35:00
3:55 AM,50.0,32.0,50,29.87,10.0,SSW,17.3,27.6,N/A,,Clear,200,2012-11-01 10:55:00
4:15 AM,50.0,32.0,50,29.88,10.0,SW,9.2,-,N/A,,Clear,230,2012-11-01 11:15:00
4:35 AM,50.0,32.0,50,29.88,10.0,SSE,12.7,18.4,N/A,,Mostly Cloudy,160,2012-11-01 11:35:00
4:55 AM,50.0,32.0,50,29.89,10.0,SSW,10.4,-,N/A,,Overcast,210,2012-11-01 11:55:00
5:15 AM,46.4,33.8,62,29.89,10.0,WSW,6.9,-,N/A,,Mostly Cloudy,240,2012-11-01 12:15:00
5:35 AM,48.2,33.8,58,29.89,10.0,South,21.9,32.2,N/A,,Scattered Clouds,190,2012-11-01 12:35:00
5:55 AM,48.2,33.8,58,29.89,10.0,South,20.7,28.8,N/A,,Mostly Cloudy,170,2012-11-01 12:55:00
6:35 AM,46.4,35.6,66,29.90,10.0,South,16.1,23.0,N/A,Rain,Light Rain,170,2012-11-01 13:35:00
6:55 AM,46.4,35.6,66,29.90,10.0,South,6.9,18.4,N/A,,Overcast,170,2012-11-01 13:55:00
7:15 AM,46.4,35.6,66,29.91,10.0,South,12.7,17.3,N/A,,Mostly Cloudy,180,2012-11-01 14:15:00
7:35 AM,48.2,33.8,58,29.91,10.0,SSE,8.1,17.3,N/A,,Mostly Cloudy,160,2012-11-01 14:35:00
7:55 AM,46.4,35.6,66,29.91,10.0,SSW,16.1,23.0,N/A,,Scattered Clouds,200,2012-11-01 14:55:00
8:15 AM,46.4,35.6,66,29.92,10.0,South,20.7,25.3,N/A,,Scattered Clouds,180,2012-11-01 15:15:00
8:35 AM,46.4,35.6,66,29.93,10.0,South,23.0,31.1,N/A,,Scattered Clouds,180,2012-11-01 15:35:00
8:55 AM,44.6,37.4,76,29.93,10.0,South,17.3,23.0,N/A,,Mostly Cloudy,180,2012-11-01 15:55:00
9:15 AM,50.0,37.4,62,29.94,10.0,South,15.0,18.4,N/A,,Mostly Cloudy,180,2012-11-01 16:15:00
9:35 AM,50.0,35.6,58,29.95,10.0,SSW,12.7,-,N/A,,Overcast,210,2012-11-01 16:35:00
9:55 AM,48.2,35.6,62,29.95,10.0,South,18.4,23.0,N/A,Rain,Light Rain,190,2012-11-01 16:55:00
10:15 AM,48.2,37.4,66,29.95,10.0,SSW,16.1,-,N/A,,Light Drizzle,200,2012-11-01 17:15:00
10:35 AM,51.8,37.4,58,29.95,10.0,SSW,17.3,20.7,N/A,,Overcast,200,2012-11-01 17:35:00
11:15 AM,51.8,35.6,54,29.95,10.0,South,12.7,21.9,N/A,,Overcast,190,2012-11-01 18:15:00
11:35 AM,51.8,35.6,54,29.95,10.0,SSW,13.8,-,N/A,,Overcast,210,2012-11-01 18:35:00
11:55 AM,51.8,33.8,50,29.96,10.0,SW,11.5,-,N/A,,Overcast,220,2012-11-01 18:55:00
12:15 PM,51.8,35.6,54,29.96,10.0,WSW,5.8,-,N/A,,Overcast,250,2012-11-01 19:15:00
12:35 PM,50.0,37.4,62,29.97,7.0,WNW,17.3,23.0,N/A,,Drizzle,290,2012-11-01 19:35:00
12:55 PM,46.4,41.0,81,29.97,5.0,WNW,5.8,10.4,0.02,Rain,Rain,290,2012-11-01 19:55:00
1:15 PM,50.0,42.8,76,29.97,10.0,West,3.5,-,N/A,,Overcast,270,2012-11-01 20:15:00
1:35 PM,48.2,41.0,76,29.97,10.0,Calm,Calm,-,N/A,,Mostly Cloudy,0,2012-11-01 20:35:00
1:55 PM,50.0,41.0,71,29.97,10.0,Calm,Calm,-,N/A,,Mostly Cloudy,0,2012-11-01 20:55:00
2:15 PM,50.0,41.0,71,29.97,10.0,North,3.5,-,N/A,,Mostly Cloudy,10,2012-11-01 21:15:00
2:35 PM,50.0,41.0,71,29.97,10.0,Calm,Calm,-,N/A,,Overcast,0,2012-11-01 21:35:00
2:55 PM,51.8,41.0,67,29.97,10.0,Calm,Calm,-,N/A,,Overcast,0,2012-11-01 21:55:00
3:15 PM,51.8,41.0,67,29.97,10.0,Calm,Calm,-,N/A,,Overcast,0,2012-11-01 22:15:00
3:35 PM,51.8,41.0,67,29.98,10.0,Calm,Calm,-,N/A,,Overcast,0,2012-11-01 22:35:00
4:15 PM,51.8,37.4,58,29.99,10.0,Calm,Calm,-,N/A,,Overcast,0,2012-11-01 23:15:00
4:35 PM,51.8,39.2,62,30.00,10.0,West,3.5,-,N/A,,Overcast,280,2012-11-01 23:35:00
4:55 PM,50.0,39.2,66,30.00,10.0,Calm,Calm,-,N/A,,Overcast,0,2012-11-01 23:55:00
5:15 PM,50.0,39.2,66,30.00,10.0,Calm,Calm,-,N/A,,Overcast,0,2012-11-02 00:15:00
5:35 PM,50.0,39.2,66,30.00,10.0,Calm,Calm,-,N/A,,Overcast,0,2012-11-02 00:35:00
5:55 PM,50.0,41.0,71,30.00,10.0,Calm,Calm,-,N/A,,Overcast,0,2012-11-02 00:55:00
6:15 PM,48.2,37.4,66,30.01,10.0,Calm,Calm,-,N/A,,Scattered Clouds,0,2012-11-02 01:15:00
6:35 PM,46.4,39.2,76,30.01,10.0,SE,3.5,-,N/A,,Clear,130,2012-11-02 01:35:00
6:55 PM,48.2,37.4,66,30.02,10.0,SE,3.5,-,N/A,,Clear,130,2012-11-02 01:55:00
7:15 PM,46.4,37.4,71,30.02,10.0,East,3.5,-,N/A,,Clear,80,2012-11-02 02:15:00
7:35 PM,46.4,35.6,66,30.03,10.0,East,3.5,-,N/A,,Scattered Clouds,100,2012-11-02 02:35:00
7:55 PM,44.6,37.4,76,30.03,10.0,SE,8.1,-,N/A,,Overcast,130,2012-11-02 02:55:00
8:15 PM,46.4,37.4,71,30.04,10.0,East,6.9,-,N/A,,Overcast,100,2012-11-02 03:15:00
8:35 PM,44.6,37.4,76,30.04,10.0,East,8.1,-,N/A,,Overcast,100,2012-11-02 03:35:00
8:55 PM,44.6,37.4,76,30.05,10.0,East,9.2,-,N/A,,Mostly Cloudy,80,2012-11-02 03:55:00
9:15 PM,44.6,37.4,76,30.06,10.0,East,9.2,-,N/A,,Mostly Cloudy,90,2012-11-02 04:15:00
9:35 PM,44.6,37.4,76,30.07,10.0,East,6.9,-,N/A,,Scattered Clouds,100,2012-11-02 04:35:00
9:55 PM,42.8,37.4,81,30.07,10.0,East,9.2,-,N/A,,Scattered Clouds,90,2012-11-02 04:55:00
10:15 PM,42.8,35.6,76,30.07,10.0,East,6.9,-,N/A,,Clear,90,2012-11-02 05:15:00
10:35 PM,42.8,35.6,76,30.08,10.0,ESE,6.9,-,N/A,,Clear,120,2012-11-02 05:35:00
10:55 PM,41.0,35.6,81,30.08,10.0,East,8.1,-,N/A,,Clear,100,2012-11-02 05:55:00
11:15 PM,42.8,35.6,76,30.09,10.0,ESE,9.2,-,N/A,,Clear,110,2012-11-02 06:15:00
11:35 PM,41.0,35.6,81,30.09,10.0,ESE,9.2,-,N/A,,Clear,110,2012-11-02 06:35:00
11:55 PM,41.0,35.6,81,30.09,10.0,SE,10.4,-,N/A,,Clear,130,2012-11-02 06:55:00